Flag for Spain Weather past 2 weeks in Torrevieja, Spain

Now
90 °F

Passing clouds.


Feels Like: 93 °F
Forecast: 77 / 90 °F
Wind: 12 mph from Southwest

Location: Murcia / San Javier

Current Time: Aug 1, 2014 at 2:39:29 PM

Latest Report: Aug 1, 2014 at 2:00 PM


Visibility: N/A

Pressure: 29.80 "Hg

Humidity: 49%

Dew point: 68 °F

Location of TorreviejaLocation

Historic Weather in Torrevieja — Graph

°F

Torrevieja temperature yesterday

Maximum temperature yesterday: 90 °F (at 3:00 PM)
Minimum temperature yesterday: 70 °F (at 7:00 AM)
Average temperature yesterday: 82 °F

Past Weeks' High & Low Weather Summary

 TemperatureHumidityPressure
High90 °F (Jul 31, 3:00 PM)94% (Jul 22, 7:00 AM)30.09 "Hg (Jul 22, 7:00 AM)
Low66 °F (Jul 24, 7:00 AM)33% (Jul 20, 12:00 PM)29.77 "Hg (Jul 19, 6:00 PM)
Average81 °F67%29.92 "Hg
* Reported Jul 17 1:00 PM — Aug 1 1:00 PM, Torrevieja, Weather by CustomWeather, © 2014

Note: Actual official high and low records may vary slightly from our data, if they occured in-between our weather recording intervals... More about our weather records

Advertising

Torrevieja weather history for previous 24 hours

 ConditionsComfort  
Time TempWeatherWind HumidityBarometerVisibility
1:00 PM
Aug 1
86 °FPassing clouds.6 mph62%29.80 "HgN/A
12:00 PM84 °FPassing clouds.3 mph55%29.83 "HgN/A
11:00 AM81 °FSunny.2 mph62%29.83 "Hg10 mi
10:00 AM79 °FSunny.2 mph65%29.83 "Hg10 mi
9:00 AM75 °FSunny.2 mph78%29.83 "Hg10 mi
8:00 AM72 °FSunny.No wind83%29.83 "Hg10 mi
7:00 AM70 °FClear.2 mph83%29.83 "Hg5 mi
10:00 PM
Jul 31
77 °FPassing clouds.8 mph74%29.86 "HgN/A
9:00 PM79 °FPassing clouds.10 mph70%29.86 "HgN/A
8:00 PM82 °FPassing clouds.14 mph62%29.86 "HgN/A
7:00 PM84 °FPassing clouds.14 mph55%29.86 "HgN/A
6:00 PM86 °FPassing clouds.15 mph55%29.86 "HgN/A
5:00 PM90 °FPassing clouds.13 mph41%29.89 "HgN/A
4:00 PM88 °FPassing clouds.12 mph52%29.92 "HgN/A
3:00 PM90 °FPassing clouds.12 mph36%29.92 "HgN/A
2:00 PM84 °FPassing clouds.10 mph62%29.95 "HgN/A
Weather by CustomWeather, © 2014

See weather overviewHow to use our weather pages